Location: Dąbrówka
(52.2799°N, 15.8070°E)
Time: 11:41:35
(UTC+01:00)

ISS - Pass Details

Date: 29 January 2019
Orbit: 403 x 411 km, 51.6° (Epoch: 22 February)

Event Time Altitude Azimuth Distance (km) Brightness Sun altitude
Rises 18:15:19 0° 253° (WSW) 2,332 1.9 -14.9°
Reaches altitude 10° 18:17:24 10° 250° (WSW) 1,474 0.3 -15.2°
Maximum altitude 18:20:41 67° 168° (SSE) 448 -3.7 -15.7°
Enters shadow 18:21:45 38° 98° (E) 640 -3.3 -15.8°
